STARLINK R

Last updated on June 19, 2020, 12:02 a.m. UTC

1 45745U 20038R   20170.83334491  .03352768  11511-1  73419-2 0  9993
2 45745  53.0018 271.4331 0099172  67.3535 255.0761 15.91473891  1951

Satellite is not in orbit.